This is the latest recevied weather packets stored in our database for station/object VU3OPZ-13. If no packets are shown the sender has not sent any weather packets the latest 10 day(s).
| Time | Temp. | Humidity | Pressure | Rain* | Wind** | Luminosity | Snow |
|---|---|---|---|---|---|---|---|
| 1787892850 | 27.78° C | 59% | 1012 hPa | 0 mm | - | - | - |
| 1787891046 | 26.11° C | 66% | 1012 hPa | 0 mm | - | - | - |
| 1787887682 | 24.44° C | 75% | 1012 hPa | 0 mm | - | - | - |
| 1787882640 | 22.78° C | 84% | 1012 hPa | 0 mm | - | - | - |
| 1787880836 | 22.78° C | 84% | 1011 hPa | 0 mm | - | - | - |
| 1787879032 | 21.11° C | 90% | 1011 hPa | 0 mm | - | - | - |
| 1787877227 | 21.11° C | 90% | 1011 hPa | 0 mm | - | - | - |
| 1787875423 | 21.67° C | 90% | 1010 hPa | 0 mm | - | - | - |
| 1787873618 | 21.11° C | 91% | 1010 hPa | 0 mm | - | - | - |
| 1787871814 | 21.11° C | 92% | 1010 hPa | 0 mm | - | - | - |
| 1787870010 | 21.11° C | 93% | 1010 hPa | 0 mm | - | - | - |
| 1787868206 | 21.11° C | 92% | 1010 hPa | 0 mm | - | - | - |
| 1787866402 | 21.11° C | 92% | 1010 hPa | 0 mm | - | - | - |
| 1787864597 | 21.11° C | 91% | 1010 hPa | 0 mm | - | - | - |
| 1787862793 | 21.11° C | 91% | 1010 hPa | 0 mm | - | - | - |
| 1787860989 | 21.67° C | 90% | 1011 hPa | 0 mm | - | - | - |
| 1787859184 | 21.67° C | 90% | 1011 hPa | 0 mm | - | - | - |
| 1787857380 | 21.67° C | 88% | 1012 hPa | 0 mm | - | - | - |
| 1787855579 | 21.67° C | 89% | 1012 hPa | 0 mm | - | - | - |
| 1787853771 | 21.67° C | 87% | 1012 hPa | 0 mm | - | - | - |
| 1787851967 | 21.67° C | 87% | 1012 hPa | 0 mm | - | - | - |
| 1787850162 | 22.22° C | 85% | 1013 hPa | 0 mm | - | - | - |
| 1787848356 | 22.22° C | 85% | 1013 hPa | 0 mm | - | - | - |
| 1787846552 | 22.78° C | 83% | 1013 hPa | 0 mm | - | - | - |
| 1787844747 | 22.78° C | 83% | 1013 hPa | 0 mm | - | - | - |
* Rain latest hour (hover to see other rain measurements)
** Current wind speed in m/s (hover to see current wind gust speed)